Lid_Strength_Index
-1 -1 -0 3 10 11 13 12 7 8 7 5 5 6 7 6 7 12 2 1 0 0 -0 -1 -1 -1 -1 -1 -1 -1 -2 -2 -1 -1 -2 -1 -2 -2 -2 -1 -1 -1 -1 -1 -1 -1 -1 -1 -1
-0 0 2 6 12 14 13 9 9 7 6 4 5 5 6 7 4 4 3 0 -0 -0 -0 -0 -1 -1 -1 -1 -1 -1 -2 -2 -2 -2 -2 -2 -2 -2 -2 -1 -1 -1 -1 -1 -1 -1 -1 -1 -1
0 0 6 9 11 13 13 9 8 6 5 5 5 4 5 6 3 3 1 0 0 0 -0 -1 -2 -2 -1 -1 -1 -1 -2 -2 -2 -2 -2 -2 -2 -2 -2 -2 -1 -1 -1 -1 -1 -1 -1 -1 -1
1 3 5 10 12 9 10 7 6 5 5 4 5 6 4 2 3 2 0 0 1 0 -0 -1 -1 -1 -1 -1 -1 -2 -2 -2 -2 -2 -2 -2 -2 -2 -2 -1 -2 -2 -1 -1 -1 -1 -1 -1 -1
2 5 10 11 10 8 6 6 5 6 6 5 5 7 6 3 1 1 1 0 1 1 -0 -0 -1 -1 -1 -1 -1 -2 -1 -1 -2 -2 -2 -2 -2 -2 -2 -2 -1 -2 -2 -1 -1 -1 -1 -1 -1
6 5 11 12 9 7 6 5 5 6 6 5 6 6 5 2 2 1 1 1 0 1 0 -0 -1 -1 -1 -1 -2 -2 -2 -2 -2 -2 -2 -2 -2 -2 -2 -2 -2 -2 -2 -2 -1 -1 -1 -1 -1
6 8 10 10 9 8 6 5 6 6 6 6 4 6 5 3 2 1 1 1 1 0 0 -0 -0 -1 -2 -2 -2 -1 -1 -2 -2 -2 -2 -2 -2 -2 -2 -2 -2 -2 -2 -2 -2 -2 -1 -1 -1
5 7 9 9 10 9 5 4 4 5 6 4 4 7 7 3 2 1 1 1 1 1 1 1 0 -0 -0 -0 -2 -1 -1 -2 -2 -2 -2 -2 -2 -2 -2 -2 -1 -2 -2 -2 -1 -1 -2 -1 -1
0 9 10 9 8 8 5 6 4 3 5 4 4 4 3 2 2 2 2 2 2 1 1 1 0 0 0 0 -1 -1 -2 -2 -2 -1 -2 -1 0 -0 0 -1 -2 -1 -1 -0 0 1 2 -0 -1
5 9 8 6 6 6 5 6 5 5 5 5 5 3 3 2 3 3 3 3 3 2 2 1 1 0 0 -0 -0 0 -0 1 1 1 1 1 1 0 -0 -0 -1 -0 1 2 2 3 2 1 3
4 8 5 6 5 5 6 6 5 6 7 5 5 5 4 3 3 3 3 3 3 2 2 1 1 1 0 1 0 1 2 2 1 2 2 3 1 2 2 3 3 5 2 4 3 5 5 6 5
6 6 6 5 5 5 6 5 7 6 6 4 5 4 4 4 4 3 3 3 3 2 2 1 1 1 1 1 1 1 2 3 4 3 4 3 3 4 4 4 4 5 5 7 7 7 6 6 7
7 6 5 5 5 5 5 6 6 6 5 4 4 4 4 4 4 3 3 2 3 3 2 1 1 2 1 1 2 1 2 3 6 5 5 4 4 5 5 5 5 5 6 6 7 7 7 8 8
6 6 6 6 6 6 7 7 6 6 5 5 5 5 5 5 4 4 3 3 3 3 2 1 1 1 2 1 2 2 3 5 5 6 5 4 4 5 5 5 5 6 6 6 7 7 8 8 8
5 8 7 7 6 6 6 8 8 6 5 5 5 6 5 5 4 4 3 3 3 2 2 2 1 1 1 2 1 2 3 4 4 4 4 5 4 5 5 6 6 6 6 7 7 8 8 8 8
8 8 10 6 6 6 7 11 6 6 6 7 7 7 6 6 6 6 4 3 3 3 3 2 1 1 1 2 2 2 3 4 4 5 5 5 4 4 5 5 6 6 6 7 7 7 8 8 8
8 12 10 9 6 7 8 10 7 6 7 7 7 7 7 7 6 5 5 5 4 3 3 3 2 1 1 1 2 3 3 4 4 4 4 5 4 4 5 5 5 6 6 7 7 7 7 8 8
12 12 11 11 9 8 9 10 8 7 7 7 7 8 7 7 6 5 4 4 4 4 4 4 3 2 1 1 2 4 3 4 3 4 5 5 5 4 5 5 6 6 6 7 7 7 7 8 8
11 12 12 10 8 9 9 9 8 7 7 7 7 7 7 6 6 5 5 5 4 4 4 4 3 2 2 2 2 5 5 4 4 4 4 5 5 5 5 5 6 6 6 7 7 8 8 8 8
10 11 11 9 7 9 10 10 8 7 7 7 7 8 8 8 8 7 6 5 5 5 4 4 3 3 3 1 2 3 5 5 4 4 4 4 5 4 5 5 6 6 6 7 7 8 8 8 8
10 11 11 11 9 9 10 11 9 8 7 8 9 9 9 9 9 8 7 7 6 6 5 5 4 3 3 3 1 4 5 5 6 5 3 4 4 4 5 6 6 6 6 7 7 7 8 9 9
12 9 10 10 11 14 10 15 11 9 9 10 10 10 10 10 9 8 8 8 7 7 5 5 4 4 3 3 3 2 4 5 5 5 4 4 4 5 5 5 6 6 6 7 7 6 7 8 9
11 8 10 10 11 12 11 13 11 9 11 10 9 9 11 10 9 9 8 7 7 6 5 5 5 4 3 3 3 4 2 3 4 4 5 4 4 5 5 5 6 6 6 7 7 7 7 8 9
8 9 10 11 12 16 12 12 12 11 10 12 11 11 11 10 10 9 8 7 7 6 5 5 5 4 3 3 3 4 4 2 3 4 4 5 5 5 5 5 6 6 6 7 7 8 8 8 9
9 12 16 16 17 17 11 13 12 10 11 12 12 12 11 11 10 9 9 8 7 6 5 5 5 4 3 3 4 4 4 3 2 3 4 5 5 5 5 5 6 6 6 7 7 8 8 8 9
12 12 16 19 18 16 12 15 11 10 11 11 11 10 10 10 9 9 9 8 7 6 6 5 5 5 4 3 3 4 4 3 2 2 3 4 4 5 5 5 6 6 6 7 7 8 8 8 8
12 14 13 15 14 16 15 12 9 11 12 11 11 10 10 10 8 8 8 8 7 7 7 6 5 5 4 3 2 3 4 4 4 1 2 2 3 4 5 6 6 6 6 7 7 8 8 8 9
11 11 16 15 20 20 17 16 15 14 13 11 11 10 10 8 8 7 7 7 7 6 6 5 6 6 5 4 2 2 3 4 4 3 2 2 3 4 5 6 6 7 7 7 7 8 8 9 9
14 15 14 15 16 20 20 18 13 13 12 12 11 11 10 10 9 9 8 8 7 5 4 5 4 3 3 3 1 2 3 3 4 4 3 2 2 3 5 5 6 7 7 7 7 7 8 9 9
13 15 15 17 18 17 19 20 12 12 11 11 11 11 10 9 8 6 5 5 4 3 3 3 3 2 2 2 2 1 2 3 4 5 5 5 3 3 4 5 6 6 7 7 7 8 7 8 9